Location: Cahas Mountain Overlook
(37.0833°N, 80.1000°W)
Time: 00:06:32
(UTC-05:00)

Vanguard 1 - All Passes

Search period start: 29 November 2023 00:00
Search period end: 09 December 2023 00:00
Orbit: 651 x 3828 km, 34.3° (Epoch: 27 November)

Date Brightness Start Highest point End Pass type
(mag) Time Alt. Az. Time Alt. Az. Time Alt. Az.
29 Nov - 01:46:04 10° WNW 02:06:45 48° SW 02:20:15 10° SSE visible
29 Nov - 04:20:11 10° W 04:27:00 13° WSW 04:32:39 10° SSW visible
29 Nov - 16:34:01 10° S 16:45:48 28° SE 17:02:13 10° E daylight
29 Nov - 18:51:20 10° SW 19:08:31 63° SSE 19:31:38 10° E visible
29 Nov - 21:13:43 10° W 21:35:28 82° S 21:57:36 10° E visible
29 Nov - 23:39:24 10° W 00:03:01 73° SSW 00:20:46 10° ESE visible
30 Nov - 02:07:42 10° WNW 02:26:54 39° SW 02:39:48 10° SSE visible
30 Nov - 16:52:57 10° SSW 17:05:42 37° SE 17:24:21 10° E daylight
30 Nov - 19:11:37 10° WSW 19:29:19 70° SSE 19:52:49 10° E visible
30 Nov - 21:34:39 10° W 21:56:45 83° S 22:18:33 10° E visible
01 Dec - 00:00:36 10° W 00:23:52 66° SSW 00:41:07 10° SE visible
01 Dec - 02:29:40 10° W 02:46:52 31° SW 02:58:55 10° S visible
01 Dec - 15:01:59 10° SE 15:05:42 11° ESE 15:09:53 10° ESE daylight
01 Dec - 17:12:23 10° SSW 17:25:47 45° SE 17:46:04 10° ENE visible
01 Dec - 19:32:05 10° WSW 19:50:17 76° SSE 20:14:00 10° E visible
01 Dec - 21:55:37 10° W 22:18:02 81° S 22:39:25 10° ESE visible
02 Dec - 00:21:50 10° WNW 00:44:32 58° SSW 01:01:15 10° SE visible
02 Dec - 02:52:13 10° W 03:06:41 23° SW 03:17:27 10° S visible
02 Dec - 15:17:32 10° SSE 15:25:19 18° SE 15:35:35 10° E daylight
02 Dec - 17:32:07 10° SW 17:46:03 54° SE 18:07:34 10° ENE visible
02 Dec - 19:52:42 10° WSW 20:11:24 80° S 20:35:09 10° E visible
02 Dec - 22:16:37 10° W 22:39:14 78° SSW 23:00:10 10° ESE visible
03 Dec - 00:43:10 10° WNW 01:05:00 50° SW 01:21:08 10° SSE visible
03 Dec - 03:15:58 10° W 03:26:25 16° SW 03:34:53 10° SSW visible
03 Dec - 15:35:34 10° S 15:45:00 25° SE 15:58:42 10° E daylight
03 Dec - 17:52:07 10° SW 18:06:32 62° SSE 18:28:56 10° E visible
03 Dec - 20:13:23 10° W 20:32:36 82° S 20:56:16 10° E visible
03 Dec - 22:37:39 10° W 23:00:20 73° SSW 23:20:47 10° ESE visible
04 Dec - 01:04:41 10° WNW 01:25:17 42° SW 01:40:42 10° SSE visible
04 Dec - 15:54:27 10° SSW 16:04:48 33° SE 16:20:56 10° E daylight
04 Dec - 18:12:20 10° WSW 18:27:13 69° SSE 18:50:14 10° E visible
04 Dec - 20:34:11 10° W 20:53:52 83° S 21:17:21 10° E visible
04 Dec - 22:58:41 10° W 23:21:17 67° SSW 23:41:12 10° SE visible
05 Dec - 01:26:31 10° W 01:45:23 34° SW 01:59:52 10° S visible
05 Dec - 16:13:49 10° SSW 16:24:46 42° SE 16:42:43 10° ENE daylight
05 Dec - 18:32:43 10° WSW 18:48:04 75° SSE 19:11:31 10° E visible
05 Dec - 20:55:01 10° W 21:15:07 81° S 21:38:21 10° ESE visible
05 Dec - 23:19:47 10° WNW 23:42:03 59° SSW 00:01:23 10° SE visible
06 Dec - 01:48:54 10° W 02:05:21 26° SW 02:18:27 10° S visible
06 Dec - 14:20:03 10° SSE 14:25:14 14° ESE 14:31:45 10° E daylight
06 Dec - 16:33:31 10° SW 16:44:56 51° SE 17:04:16 10° ENE daylight
06 Dec - 18:53:13 10° WSW 19:09:04 80° S 19:32:48 10° E visible
06 Dec - 21:15:52 10° W 21:36:19 78° SSW 21:59:14 10° ESE visible
06 Dec - 23:40:59 10° WNW 00:02:38 51° SW 00:21:18 10° SE visible
07 Dec - 02:12:17 10° W 02:25:13 19° SW 02:36:05 10° SSW visible
07 Dec - 14:37:39 10° S 14:44:52 21° SE 14:55:14 10° E daylight
07 Dec - 16:53:28 10° SW 17:05:18 60° SSE 17:25:41 10° E daylight
07 Dec - 19:13:49 10° W 19:30:10 82° S 19:54:03 10° E visible
07 Dec - 21:36:44 10° W 21:57:25 73° SSW 22:19:56 10° ESE visible
08 Dec - 00:02:22 10° W 00:23:04 43° SW 00:40:54 10° SSE visible
08 Dec - 02:38:18 10° WSW 02:45:03 12° WSW 02:51:14 10° SW night (unlit)
08 Dec - 14:56:23 10° S 15:04:36 29° SE 15:17:34 10° E daylight
08 Dec - 17:13:38 10° WSW 17:25:51 68° SSE 17:47:04 10° E visible
08 Dec - 19:34:29 10° W 19:51:19 82° S 20:15:16 10° E visible
08 Dec - 21:57:38 10° W 22:18:24 66° SSW 22:40:26 10° SE visible
